Location: Unspecified
(47.7670°N, 8.8522°E)
Time: 09:54:13
(UTC+01:00)

BlueWalker 3 - Visible Passes

Search period start: 08 December 2022 00:00
Search period end: 18 December 2022 00:00
Orbit: 501 x 518 km, 53.2° (Epoch: 07 December)

Date Brightness Start Highest point End Pass type
(mag) Time Alt. Az. Time Alt. Az. Time Alt. Az.
08 Dec 1.9 18:26:46 10° WNW 18:30:41 86° SSW 18:31:51 44° ESE visible
08 Dec 5.2 20:06:12 10° W 20:06:42 12° W 20:06:42 12° W visible
09 Dec 1.9 18:08:21 10° WNW 18:12:16 83° SSW 18:14:45 21° SE visible
09 Dec 4.8 19:47:53 10° W 19:49:37 16° WSW 19:49:37 16° WSW visible
10 Dec 2.0 17:49:56 10° WNW 17:53:51 79° SSW 17:57:44 10° SE visible
10 Dec 4.6 19:29:35 10° W 19:31:59 16° SW 19:32:47 15° SW visible
11 Dec 2.1 17:31:31 10° WNW 17:35:26 75° SSW 17:39:18 10° SE visible
11 Dec 4.8 19:11:15 10° W 19:13:32 15° SW 19:15:47 10° SSW visible
12 Dec 2.3 17:13:05 10° WNW 17:17:00 72° SSW 17:20:52 10° SE visible
12 Dec 4.9 18:52:58 10° W 18:55:04 14° SW 18:57:10 10° SSW visible
13 Dec 5.1 18:34:42 10° W 18:36:36 13° SW 18:38:30 10° SSW visible
14 Dec 5.2 18:16:27 10° WSW 18:18:08 12° SW 18:19:48 10° SSW visible
15 Dec 5.4 17:58:14 10° WSW 17:59:39 12° SW 18:01:03 10° SSW visible
16 Dec 5.6 17:40:06 10° WSW 17:41:10 11° SW 17:42:14 10° SW visible
17 Dec 5.9 17:22:12 10° WSW 17:22:40 10° SW 17:23:09 10° SW visible
